#�ϑ�����,���ϕ���,���ϕ���,�ő啗��,�ő啗����������,�ő�u�ԕ���,�ő�u�ԕ�����������
#(�N����),(m/s)   ,(16����),(m/s)   ,(16����)        ,(m/s)       ,(16����)            
2012/9/13 0:25,1.1,13,1.1,13,1.3,12
2012/9/13 0:26,1.1,13,1.2,13,1.5,13
2012/9/13 0:27,1.3,13,1.3,13,2,13
2012/9/13 0:28,1.2,13,1.3,13,1.4,12
2012/9/13 0:29,1.2,12,1.2,13,1.5,12
2012/9/13 0:30,1.1,12,1.2,13,1.4,11
2012/9/13 0:31,1,12,1.1,13,1.1,12
2012/9/13 4:27,1,9,1,9,1.1,9
2012/9/13 4:28,0.7,9,1,9,1.1,9
2012/9/13 4:29,0.6,9,0.7,9,1,9
2012/9/13 4:30,0.6,9,0.6,9,0.8,9
2012/9/13 4:31,0.5,9,0.6,9,0.5,9
2012/9/13 4:32,0.4,9,0.5,9,0.4,10
2012/9/13 4:33,0.4,9,0.4,9,0.3,10
2012/9/13 4:34,0.3,9,0.4,9,0.5,11
2012/9/13 4:35,0.4,10,0.4,9,0.9,12
2012/9/13 4:36,0.5,10,0.5,9,1.5,12
2012/9/13 4:37,0.5,10,0.5,9,1.6,12
2012/9/13 4:38,0.6,10,0.6,9,1.4,11
2012/9/13 4:39,0.7,11,0.7,11,1.6,12
2012/9/13 4:40,0.7,11,0.7,11,1.8,12
2012/9/13 4:41,0.8,11,0.8,11,1.5,11
2012/9/13 4:42,0.9,11,0.9,11,1.4,11
2012/9/13 4:43,1,11,1,11,1.4,9
2012/9/13 4:44,1.1,11,1.1,11,1.6,10
2012/9/13 4:45,1.1,11,1.1,11,1.5,10
2012/9/13 4:46,1.1,11,1.1,11,1.3,10
2012/9/13 4:47,1,11,1,11,1.4,10
2012/9/13 4:48,1,11,1,11,1.1,10
2012/9/13 4:49,1,11,1,11,1.4,11
2012/9/13 4:50,0.9,10,1,11,1.4,10
2012/9/13 4:51,0.9,10,0.9,11,1.5,9
2012/9/13 4:52,0.9,10,0.9,11,1.4,11
2012/9/13 4:53,0.9,10,0.9,11,1.3,11
2012/9/13 5:04,0.8,16,0.8,16,1,16
2012/9/13 5:05,0.8,16,0.8,16,1,16
2012/9/13 5:06,0.9,1,0.9,16,1.3,1
2012/9/13 5:07,0.9,1,0.9,16,1,1
2012/9/13 5:08,0.8,1,0.9,16,1,1
2012/9/13 5:09,0.8,1,0.8,16,0.8,16
2012/9/13 5:10,0.7,1,0.7,16,0.5,2
2012/9/13 5:11,0.6,1,0.7,16,0.5,2
2012/9/13 5:12,0.5,1,0.6,16,0.3,2
2012/9/13 5:13,0.5,1,0.5,16,0.1,16
2012/9/13 5:14,0.4,1,0.5,16,0.4,2
2012/9/13 5:15,0.4,1,0.4,16,0.3,1
2012/9/13 5:16,0.3,1,0.4,1,0.4,2
2012/9/13 5:17,0.2,2,0.3,1,0.3,3
2012/9/13 5:18,0.1,2,0.2,1,0,3
2012/9/13 5:19,0.1,2,0.1,1,0,3
2012/9/13 5:20,0.1,3,0.1,1,0.6,4
2012/9/13 5:21,0.1,3,0.1,1,0.6,4
2012/9/13 5:22,0.2,3,0.2,1,0.8,3
2012/9/13 5:23,0.2,3,0.2,1,0.6,4
2012/9/13 5:24,0.2,4,0.2,1,0.4,3
2012/9/13 5:25,0.2,4,0.2,1,0.1,4
2012/9/13 5:26,0.2,3,0.2,1,0.1,15
2012/9/13 5:27,0.2,3,0.2,2,0.6,10
2012/9/13 5:28,0.2,3,0.2,3,0.6,11
2012/9/13 5:29,0.2,3,0.2,3,0.3,11
2012/9/13 5:30,0.2,4,0.2,3,0.1,12
2012/9/13 5:31,0.2,11,0.2,3,0.1,7
2012/9/13 5:32,0.2,12,0.2,3,0.5,13
2012/9/13 5:33,0.2,12,0.2,3,1,13
2012/9/13 5:34,0.3,12,0.3,12,1,13
2012/9/13 5:35,0.4,12,0.4,12,1,13
2012/9/13 5:36,0.4,12,0.4,12,1,13
2012/9/13 5:37,0.5,12,0.5,12,1,13
2012/9/13 5:38,0.5,12,0.5,12,1,13
2012/9/13 5:39,0.5,13,0.5,12,0.1,13
2012/9/13 5:40,0.5,13,0.5,12,0.8,12
2012/9/13 5:41,0.6,13,0.6,13,0.8,12
2012/9/13 5:42,0.6,13,0.6,13,1,13
2012/9/13 5:43,0.6,13,0.6,13,1.3,12
2012/9/13 5:44,0.7,13,0.7,13,1.4,12
2012/9/13 5:45,0.6,13,0.7,13,1.3,13
2012/9/13 5:46,0.6,13,0.6,13,0.9,15
2012/9/13 5:47,0.6,13,0.6,13,0.8,12
2012/9/13 5:48,0.6,13,0.6,13,0.4,13
2012/9/13 5:49,0.6,12,0.6,13,0.1,12
2012/9/13 5:50,0.6,12,0.6,13,0.4,2
2012/9/13 5:51,0.5,13,0.6,13,0.5,1
2012/9/13 5:52,0.5,13,0.5,13,0.4,15
2012/9/13 5:53,0.4,13,0.5,13,0.1,14
2012/9/13 5:54,0.3,13,0.4,13,0.4,8
2012/9/13 5:55,0.2,13,0.3,13,0.4,8
2012/9/13 5:56,0.2,12,0.2,13,0.5,9
2012/9/13 5:57,0.2,11,0.2,13,0.8,9
2012/9/13 5:58,0.2,10,0.2,13,0.8,8
2012/9/13 5:59,0.2,9,0.2,12,0.3,7
2012/9/13 6:00,0.2,9,0.2,12,0.1,14
2012/9/13 6:01,0.2,9,0.2,13,0.5,3
2012/9/13 6:02,0.2,8,0.2,13,0.6,1
2012/9/13 6:03,0.3,7,0.3,13,1,16
2012/9/13 6:04,0.3,5,0.3,13,0.4,2
2012/9/13 6:05,0.3,3,0.3,7,0.5,14
2012/9/13 6:06,0.3,1,0.3,7,0.4,15
2012/9/13 6:07,0.2,2,0.3,7,0.5,2
2012/9/13 6:08,0.2,2,0.2,7,1,8
2012/9/13 6:09,0.2,1,0.2,7,1,7
2012/9/13 6:10,0.3,1,0.3,7,0.6,9
2012/9/13 6:11,0.3,16,0.3,7,0.8,9
2012/9/13 6:12,0.3,1,0.3,7,1,7
2012/9/13 6:13,0.3,6,0.3,7,1,7
2012/9/13 6:14,0.4,6,0.4,6,1.3,7
2012/9/13 6:15,0.4,7,0.4,6,1,6
2012/9/13 6:16,0.4,7,0.4,6,0.6,8
2012/9/13 6:17,0.4,7,0.5,7,0.9,6
2012/9/13 6:18,0.4,7,0.4,7,0.4,6
2012/9/13 6:19,0.4,6,0.4,7,0.8,4
2012/9/13 6:20,0.5,6,0.5,7,0.9,4
2012/9/13 6:21,0.5,6,0.5,7,0.6,4
2012/9/13 6:22,0.5,6,0.5,7,0.9,5
2012/9/13 6:23,0.4,5,0.5,7,0.5,4
2012/9/13 6:24,0.4,5,0.4,7,0.3,3
2012/9/13 6:25,0.3,5,0.3,7,0.5,11
2012/9/13 6:26,0.3,5,0.3,7,0.1,12
2012/9/13 6:27,0.3,5,0.3,6,0.3,12
2012/9/13 6:28,0.2,5,0.3,6,0.3,9
2012/9/13 6:29,0.2,6,0.2,6,0.4,9
2012/9/13 6:30,0.2,9,0.2,6,0.4,8
2012/9/13 6:31,0.1,10,0.2,6,0.1,10
2012/9/13 6:32,0.1,11,0.1,6,0.1,13
2012/9/13 6:33,0.1,11,0.1,5,0.6,14
2012/9/13 6:34,0.1,12,0.1,5,0.6,16
2012/9/13 6:35,0.1,12,0.1,5,0.3,16
2012/9/13 6:36,0.1,13,0.1,5,0.4,14
2012/9/13 6:37,0.1,13,0.1,5,0.5,13
2012/9/13 6:38,0.1,13,0.2,5,0.5,13
2012/9/13 6:39,0.1,14,0.2,6,0.4,16
2012/9/13 6:40,0.1,13,0.1,9,0.6,13
2012/9/13 6:41,0.2,13,0.2,13,1,12
2012/9/13 6:42,0.3,13,0.3,14,1,12
2012/9/13 6:43,0.3,13,0.3,14,0.8,10
2012/9/13 6:44,0.3,13,0.3,14,0.9,11
2012/9/13 6:45,0.4,12,0.4,12,1,8
2012/9/13 6:46,0.4,12,0.4,12,1.3,11
2012/9/13 6:47,0.4,11,0.4,12,0.8,11
2012/9/13 6:48,0.5,11,0.5,11,0.5,12
2012/9/13 6:49,0.5,11,0.5,11,0.8,13
2012/9/13 6:50,0.5,12,0.5,11,0.6,13
2012/9/13 6:51,0.5,12,0.5,11,0.8,12
2012/9/13 6:52,0.5,12,0.5,11,0.6,13
2012/9/13 6:53,0.5,12,0.5,11,0.9,10
2012/9/13 6:54,0.5,12,0.5,11,0.5,10
2012/9/13 6:55,0.5,12,0.5,11,1.3,10
2012/9/13 6:56,0.5,11,0.5,11,1.5,9
2012/9/13 6:57,0.5,11,0.5,11,1.1,9
2012/9/13 8:12,0,13,0,13,0.1,11
2012/9/13 8:13,0,11,0,13,0.1,11
2012/9/13 8:14,0.3,10,0.3,11,1,10
2012/9/13 8:15,0.2,10,0.3,11,0.4,9
2012/9/13 8:16,0.5,10,0.5,10,1.9,8
2012/9/13 8:17,0.5,10,0.6,10,1.8,10
2012/9/13 8:18,0.5,10,0.5,10,0.8,10
2012/9/13 8:19,0.5,10,0.5,10,0.9,9
2012/9/13 8:20,0.5,10,0.5,10,0.9,11
2012/9/13 8:21,0.5,10,0.5,10,0.9,10
2012/9/13 8:22,0.5,10,0.5,10,0.9,9
2012/9/13 8:23,0.6,10,0.6,10,0.9,9
2012/9/13 8:24,0.6,9,0.6,10,0.9,8
2012/9/13 8:25,0.6,9,0.6,10,0.9,8
2012/9/13 8:26,0.5,9,0.6,10,0.5,7
2012/9/13 8:27,0.5,9,0.5,10,0.5,12
2012/9/13 8:28,0.5,9,0.5,10,1.1,9
2012/9/13 8:29,0.5,9,0.5,10,0.9,9
2012/9/13 8:30,0.4,9,0.5,10,0.8,13
2012/9/13 8:31,0.4,9,0.5,10,1.1,9
2012/9/13 8:32,0.5,9,0.5,10,0.8,8
2012/9/13 8:33,0.4,8,0.4,10,0.3,6
2012/9/13 8:34,0.4,8,0.4,9,0.4,4
2012/9/13 8:35,0.3,9,0.3,9,0.4,9
2012/9/13 8:36,0.3,8,0.3,9,1.5,6
2012/9/13 8:37,0.4,8,0.4,9,1.4,7
2012/9/13 8:38,0.5,7,0.5,9,1.5,6
2012/9/13 8:39,0.5,7,0.5,9,1.8,6
2012/9/13 8:40,0.6,6,0.6,7,1.4,5
2012/9/13 8:41,0.5,6,0.6,7,0.5,3
2012/9/13 8:42,0.5,6,0.5,7,0.8,6
2012/9/13 8:43,0.6,6,0.6,7,1.5,6
2012/9/13 8:44,0.7,6,0.7,6,1.5,6
2012/9/13 8:45,0.8,6,0.8,6,1.3,5
2012/9/13 8:46,0.8,6,0.8,6,1,4
2012/9/13 8:47,0.7,6,0.7,6,0.8,7
2012/9/13 8:48,0.6,5,0.7,6,1.6,10
2012/9/13 8:49,0.7,6,0.7,6,2.6,8
2012/9/13 8:50,0.7,6,0.7,6,1.4,8
2012/9/13 8:51,0.7,7,0.7,6,1.4,8
2012/9/13 8:52,0.8,6,0.8,6,1.3,6
2012/9/13 8:53,0.7,7,0.8,6,0.9,6
2012/9/13 8:54,0.7,7,0.7,6,1.5,9
2012/9/13 8:55,0.7,8,0.7,6,2,9
2012/9/13 8:56,0.8,8,0.8,6,1.9,9
2012/9/13 8:57,0.8,9,0.8,6,1.4,8
2012/9/13 8:58,0.8,9,0.8,6,2.6,9
2012/9/13 8:59,0.8,9,0.8,6,3,9
2012/9/13 9:00,0.9,9,0.9,9,2.6,9
2012/9/13 9:01,0.9,9,0.9,9,1.5,10
2012/9/13 9:02,0.9,9,0.9,9,1.1,10
2012/9/13 9:03,1,9,1,9,2,10
2012/9/13 9:04,1,9,1,9,1.6,11
2012/9/13 9:05,0.9,10,1,9,1,10
2012/9/13 9:06,0.9,10,0.9,9,1.3,10
2012/9/13 9:07,0.9,10,0.9,9,2,9
2012/9/13 9:08,1,10,1,9,2.6,9
2012/9/13 9:09,1,10,1,9,2.1,10
2012/9/13 9:10,1,10,1,9,2.2,9
2012/9/13 9:11,1,10,1,9,2.1,8
2012/9/13 9:12,1.1,10,1.1,10,2,10
2012/9/13 9:13,1,10,1.1,10,2.4,8
2012/9/13 9:14,1.1,10,1.1,10,1.9,10
2012/9/13 9:15,1.1,10,1.1,10,2,12
2012/9/13 9:16,1.2,10,1.2,10,3,10
2012/9/13 9:17,1.3,10,1.3,10,1.9,11
2012/9/13 9:18,1.2,10,1.3,10,2.4,10
2012/9/13 9:19,1.3,10,1.3,10,3,10
2012/9/13 9:20,1.3,10,1.3,10,2.4,12
2012/9/13 9:21,1.3,10,1.3,10,1.9,10
2012/9/13 9:22,1.3,10,1.3,10,2.9,9
2012/9/13 9:23,1.5,10,1.5,10,4.2,9
2012/9/13 9:24,1.6,10,1.6,10,5.4,9
2012/9/13 9:25,1.7,10,1.7,10,2.4,8
2012/9/13 9:26,1.6,10,1.7,10,2,9
2012/9/13 9:27,1.5,10,1.6,10,1.8,10
2012/9/13 9:28,1.6,9,1.6,10,3.2,9
2012/9/13 9:29,1.5,9,1.6,10,2.6,9
2012/9/13 9:30,1.6,9,1.6,10,3.2,9
2012/9/13 9:31,1.6,9,1.6,10,2.5,8
2012/9/13 9:32,1.7,8,1.7,10,2.5,9
2012/9/13 9:33,1.5,8,1.7,10,2.5,8
2012/9/13 9:34,1.4,8,1.5,10,2.1,9
2012/9/13 9:35,1.5,8,1.5,10,3.6,9
2012/9/13 9:36,1.5,9,1.5,8,1.5,8
2012/9/13 9:37,1.6,9,1.6,8,3,9
2012/9/13 9:38,1.6,9,1.6,8,3.1,9
2012/9/13 9:39,1.6,9,1.6,8,2.6,10
2012/9/13 9:40,1.5,9,1.6,8,2.7,11
2012/9/13 9:41,1.5,9,1.5,8,2.4,10
2012/9/13 9:42,1.5,10,1.5,8,2.9,9
2012/9/13 9:43,1.6,10,1.6,9,3,9
2012/9/13 9:44,1.6,10,1.6,9,2,10
2012/9/13 9:45,1.4,10,1.5,9,1.6,12
2012/9/13 9:46,1.5,10,1.5,9,2.6,10
2012/9/13 9:47,1.4,10,1.5,9,1.1,12
2012/9/13 9:48,1.4,10,1.4,9,2.7,9
2012/9/13 9:49,1.4,10,1.4,9,2.2,10
2012/9/13 9:50,1.4,10,1.4,10,3.5,9
2012/9/13 9:51,1.3,10,1.4,10,2,9
2012/9/13 9:52,1.3,10,1.3,10,2.9,8
2012/9/13 9:53,1.4,10,1.4,10,4.5,10
2012/9/13 9:54,1.4,10,1.4,10,2.6,9
2012/9/13 9:55,1.4,9,1.4,10,2.2,9
2012/9/13 9:56,1.3,9,1.4,10,1.1,11
2012/9/13 9:57,1.3,9,1.3,10,1.5,8
2012/9/13 9:58,1.3,9,1.4,10,1.9,9
2012/9/13 9:59,1.2,10,1.3,10,1.1,10
2012/9/13 10:00,1.2,10,1.2,10,1.5,12
2012/9/13 10:01,1.1,10,1.2,10,1.3,12
2012/9/13 10:02,1.1,11,1.1,10,1.3,12
2012/9/13 10:03,0.9,11,1,10,3.1,9
2012/9/13 10:04,0.9,11,1,10,2.7,9
2012/9/13 10:05,1,11,1,9,2.5,10
2012/9/13 10:06,1,11,1,9,1.6,9
2012/9/13 10:07,1,11,1,9,3.1,9
2012/9/13 10:08,1,11,1,9,2.2,11
2012/9/13 10:09,1.1,11,1.1,10,2.4,9
2012/9/13 10:10,1.1,10,1.1,10,2.2,8
2012/9/13 10:11,1.2,10,1.2,10,3.6,10
2012/9/13 10:12,1.4,10,1.4,10,4.2,9
2012/9/13 10:13,1.4,10,1.4,10,3.2,9
2012/9/13 10:14,1.5,9,1.5,10,2.2,10
2012/9/13 10:15,1.4,9,1.5,10,1.1,8
2012/9/13 10:16,1.4,9,1.4,10,1.5,8
2012/9/13 10:17,1.4,9,1.4,10,2.7,9
2012/9/13 10:18,1.5,9,1.5,10,2.2,9
2012/9/13 10:19,1.5,9,1.5,10,2.1,10
2012/9/13 10:20,1.5,9,1.5,10,2.4,9
2012/9/13 10:21,1.5,9,1.5,10,2.9,8
2012/9/13 10:22,1.4,9,1.5,10,2.7,9
2012/9/13 10:23,1.4,9,1.4,10,3.5,8
2012/9/13 10:24,1.4,10,1.4,9,3,9
2012/9/13 10:25,1.5,10,1.5,9,2.5,10
2012/9/13 10:26,1.4,10,1.5,9,1.8,9
2012/9/13 10:27,1.5,10,1.5,9,3.2,10
2012/9/13 10:37,1.6,7,1.6,7,2.5,9
2012/9/13 10:38,2.1,8,2.3,8,3.1,8
2012/9/13 10:39,1.8,8,2.1,8,2.5,7
2012/9/13 10:40,1.4,9,1.8,8,1.4,9
2012/9/13 10:41,1.3,9,1.4,8,2,8
2012/9/13 10:42,1.2,9,1.3,8,2.1,9
2012/9/13 10:43,1,9,1.2,8,0.4,10
2012/9/13 10:44,1.1,8,1.1,8,2.6,6
2012/9/13 10:45,1.2,8,1.2,8,2.1,5
2012/9/13 10:46,1.2,8,1.2,8,2.6,6
2012/9/13 10:47,1.1,8,1.2,8,0.6,2
2012/9/13 10:48,1,8,1.1,8,2.1,6
2012/9/13 10:49,1.1,8,1.1,8,3.3,9
2012/9/13 10:50,1.1,7,1.1,9,2.4,7
2012/9/13 10:51,1.2,7,1.2,9,2.2,7
2012/9/13 10:52,1.2,7,1.2,9,1.6,6
2012/9/13 10:53,1.3,7,1.3,7,2.1,6
2012/9/13 10:54,1.3,7,1.4,7,2.2,6
2012/9/13 10:55,1.3,7,1.3,7,2.4,5
2012/9/13 10:56,1.2,7,1.3,7,1.4,3
2012/9/13 10:57,1.3,7,1.3,7,1.6,14
2012/9/13 10:58,1.4,7,1.4,7,2.2,13
2012/9/13 10:59,1.4,8,1.4,7,2.7,11
2012/9/13 11:00,1.4,9,1.4,7,1.8,12
2012/9/13 11:01,1.3,12,1.4,7,1.5,12
2012/9/13 13:19,1.3,6,1.3,6,1.3,6
2012/9/13 13:20,1.2,6,1.4,5,1.5,6
2012/9/13 13:21,1.4,6,1.4,5,3,6
2012/9/13 13:22,1.5,6,1.5,6,2.2,5
2012/9/13 13:23,1.5,6,1.5,6,2.1,6
2012/9/13 13:24,1.4,6,1.5,6,1.9,6
2012/9/13 13:25,1.2,5,1.4,6,1,3
2012/9/13 13:26,1.1,5,1.2,6,1.6,8
2012/9/13 13:27,1,5,1.1,6,0.5,16
2012/9/13 13:28,1,5,1,6,1.4,5
2012/9/13 13:29,1,6,1,6,1.3,10
2012/9/13 13:30,1.1,6,1.1,6,4.1,8
2012/9/13 13:31,1.2,6,1.2,6,4.1,9
2012/9/13 13:32,1.3,7,1.3,6,3.7,8
2012/9/13 13:33,1.3,7,1.3,6,3.6,8
2012/9/13 13:34,1.4,7,1.4,5,2.5,7
2012/9/13 13:35,1.4,8,1.4,7,2.7,8
2012/9/13 13:36,1.5,8,1.5,8,3.3,8
2012/9/13 13:37,1.6,8,1.6,8,2.5,8
2012/9/13 13:38,1.7,8,1.7,8,3.6,9
2012/9/13 13:39,1.7,8,1.7,8,1.6,6
2012/9/13 13:40,1.5,9,1.7,8,2.2,12
2012/9/13 13:41,1.4,9,1.5,8,2.9,8
2012/9/13 13:42,1.3,8,1.4,8,2.7,10
2012/9/13 13:43,1.3,9,1.3,8,2.9,9
2012/9/13 13:44,1.3,9,1.3,8,2.5,9
2012/9/13 13:45,1.3,10,1.3,8,2.7,9
2012/9/13 13:46,1.4,9,1.4,8,2.9,8
2012/9/13 13:47,1.4,9,1.4,8,2.9,8
2012/9/13 13:48,1.5,9,1.5,8,2.9,10
2012/9/13 13:49,1.5,9,1.5,8,2.7,9
2012/9/13 13:50,1.5,9,1.6,9,1.6,10
2012/9/13 13:51,1.4,9,1.5,9,0.8,8
2012/9/13 13:52,1.4,9,1.4,9,3.8,9
2012/9/13 13:53,1.4,9,1.5,9,3.3,8
2012/9/13 13:54,1.4,9,1.4,9,2,11
2012/9/13 13:55,1.4,9,1.4,9,2.6,10
2012/9/13 13:56,1.3,10,1.4,9,1.1,10
2012/9/13 13:57,1.2,10,1.3,9,3.8,8
2012/9/13 13:58,1.1,10,1.2,9,2.7,7
2012/9/13 13:59,1.1,10,1.1,9,3.1,10
2012/9/13 14:00,1.3,10,1.3,9,2.4,11
2012/9/13 14:01,1.3,10,1.3,9,1.5,12
2012/9/13 14:02,1.3,10,1.3,9,1.3,12
2012/9/13 14:03,1.3,11,1.3,9,2.2,11
2012/9/13 14:04,1.3,10,1.3,9,1.5,8
2012/9/13 14:05,1.3,10,1.3,9,1.6,8
2012/9/13 14:06,1.3,10,1.3,10,1.8,8
2012/9/13 14:07,1.2,10,1.3,10,1.1,9
2012/9/13 14:08,1.1,10,1.2,10,0.6,10
2012/9/13 14:09,1,10,1.1,10,0.4,14
2012/9/13 14:10,0.8,10,1,10,0.5,15
2012/9/13 14:11,0.8,11,0.8,10,1,12
2012/9/13 14:12,0.8,11,0.8,10,1.3,13
2012/9/13 14:13,0.7,11,0.8,10,1,14
2012/9/13 14:14,0.6,12,0.7,10,1,3
2012/9/13 14:15,0.6,12,0.6,10,1,7
2012/9/13 14:16,0.5,12,0.5,10,0.9,7
2012/9/13 14:17,0.5,13,0.5,10,1.8,9
2012/9/13 14:18,0.6,14,0.6,10,1.8,4
2012/9/13 14:19,0.7,2,0.7,10,1.8,4
2012/9/13 14:20,0.7,3,0.7,10,1.4,4
2012/9/13 14:21,0.8,3,0.8,11,2,15
2012/9/13 14:22,0.8,3,0.9,3,2.4,16
2012/9/13 14:23,1,3,1,3,3.1,16
2012/9/13 14:24,1.1,3,1.1,3,3.2,16
2012/9/13 14:25,1.2,2,1.2,2,2.5,16
2012/9/13 14:26,1.3,1,1.3,1,2.6,15
2012/9/13 14:27,1.2,1,1.3,1,1.6,16
2012/9/13 14:28,1.2,1,1.2,1,1.4,16
2012/9/13 14:29,1.2,16,1.2,1,1.5,2
2012/9/13 14:30,1.2,16,1.2,1,1.6,15
2012/9/13 14:31,1.1,16,1.2,1,0.8,16
2012/9/13 14:32,1,16,1,1,0.6,16
2012/9/13 14:33,0.9,16,1,1,1.5,3
2012/9/13 14:34,0.8,1,0.9,1,1.3,3
2012/9/13 14:35,0.7,1,0.7,1,1,1
2012/9/13 14:36,0.6,1,0.6,1,1.8,16
2012/9/13 14:37,0.6,1,0.6,1,1,16
2012/9/13 14:38,0.7,1,0.7,16,1.5,15
2012/9/13 14:39,0.6,1,0.7,16,1,12
2012/9/13 14:40,0.7,1,0.7,16,3.2,9
2012/9/13 14:41,0.8,1,0.8,16,2.7,7
2012/9/13 14:42,0.9,2,0.9,16,3.5,8
2012/9/13 14:43,1,9,1,1,2.5,7
2012/9/13 14:44,1,10,1,1,1.6,7
2012/9/13 14:45,1,10,1,1,1.3,8
2012/9/13 14:46,1,10,1,1,2.2,11
2012/9/13 14:47,1,9,1,1,2.5,10
2012/9/13 14:48,1,9,1.1,9,1.4,10
2012/9/13 14:49,1.1,9,1.1,9,1.9,7
2012/9/13 14:50,1.1,9,1.1,9,2,6
2012/9/13 14:51,1.1,9,1.1,9,3.6,9
2012/9/13 14:52,1.1,9,1.1,9,2.7,7
2012/9/13 14:53,1.1,9,1.1,9,1.8,9
2012/9/13 14:54,1.1,9,1.1,9,3.1,8
2012/9/13 14:55,1.2,9,1.2,9,1.8,8
2012/9/13 14:56,1.3,8,1.3,8,3.6,8
2012/9/13 14:57,1.5,8,1.5,8,4.4,8
2012/9/13 14:58,1.6,8,1.6,8,3.2,9
2012/9/13 14:59,1.7,8,1.7,8,3.5,8
2012/9/13 15:00,1.7,8,1.8,8,2.5,7
2012/9/13 15:01,1.6,8,1.7,8,2.5,7
2012/9/13 15:02,1.7,8,1.7,8,2.7,7
2012/9/13 15:03,1.8,8,1.8,8,3.6,8
2012/9/13 15:04,1.8,8,1.8,8,3.1,9
2012/9/13 15:05,1.8,8,1.8,8,3,8
2012/9/13 15:06,1.8,8,1.9,8,2.7,8
2012/9/13 15:07,1.6,8,1.8,8,1.9,11
2012/9/13 15:08,1.6,9,1.6,8,1.9,11
2012/9/13 15:09,1.5,9,1.6,8,2.2,10
2012/9/13 15:10,1.6,9,1.6,8,2.6,8
2012/9/13 15:11,1.6,9,1.6,8,3,9
2012/9/13 15:12,1.4,9,1.6,8,0.9,6
2012/9/13 15:13,1.4,10,1.4,8,3.3,10
2012/9/13 15:14,1.4,10,1.5,8,3.1,10
2012/9/13 15:15,1.3,10,1.4,8,1.5,11
2012/9/13 15:16,1.2,10,1.3,8,0.6,10
2012/9/13 15:17,1.2,10,1.2,8,2.2,10
2012/9/13 15:18,1.2,10,1.2,9,2.7,10
2012/9/13 15:19,1.2,10,1.2,9,2.7,10
2012/9/13 15:20,1.3,10,1.3,9,3.1,10
2012/9/13 15:21,1.4,10,1.4,9,3,10
2012/9/13 15:22,1.5,10,1.5,9,3.1,11
2012/9/13 15:23,1.5,10,1.5,9,2.7,8
2012/9/13 15:24,1.4,10,1.5,10,2,9
2012/9/13 15:25,1.3,10,1.4,10,1.1,8
2012/9/13 15:26,1.3,10,1.4,10,1,1
2012/9/13 15:27,1.3,10,1.4,10,0.9,8
2012/9/13 15:28,1.2,10,1.3,10,1.6,7
2012/9/13 15:29,1.1,9,1.2,10,1.6,7
2012/9/13 15:30,0.9,9,1.1,10,0.5,13
2012/9/13 15:31,0.9,8,0.9,10,3,8
2012/9/13 15:32,0.8,8,0.9,10,2.1,8
2012/9/13 15:33,0.9,8,0.9,10,3.6,8
2012/9/13 15:34,1.1,8,1.1,10,3.2,8
2012/9/13 15:35,1.3,7,1.3,10,3.2,8
2012/9/13 15:36,1.4,7,1.4,10,2.7,8
2012/9/13 15:37,1.6,8,1.6,8,3.1,8
2012/9/13 15:38,1.6,8,1.6,8,1.8,8
2012/9/13 15:39,1.6,8,1.6,8,1.5,8
2012/9/13 15:40,1.6,8,1.6,8,1.3,7
2012/9/13 15:41,1.6,8,1.6,8,1.6,8
2012/9/13 15:42,1.6,8,1.6,8,2.1,8
2012/9/13 15:43,1.5,8,1.5,8,2.5,7
2012/9/13 15:44,1.5,8,1.5,8,4.1,9
2012/9/13 15:45,1.3,8,1.4,8,2.4,7
2012/9/13 15:46,1.4,8,1.4,8,3.2,8
2012/9/13 15:47,1.4,8,1.4,8,3.8,8
2012/9/13 15:48,1.5,8,1.5,8,3.8,7
2012/9/13 15:49,1.7,8,1.7,8,3.2,8
2012/9/13 15:50,1.8,8,1.8,8,2.7,8
2012/9/13 15:51,1.9,8,1.9,8,3.1,8
2012/9/13 15:52,2,8,2,8,3.2,8
2012/9/13 15:53,2.1,8,2.1,8,3.5,8
2012/9/13 15:54,2.1,8,2.2,8,3.5,8
2012/9/13 15:55,2.2,8,2.2,8,3.6,8
2012/9/13 15:56,2.2,8,2.3,8,3.2,8
2012/9/13 15:57,2.2,8,2.3,8,3.7,7
2012/9/13 15:58,2.1,8,2.2,8,3.6,8
2012/9/13 15:59,2.2,8,2.2,8,3.9,8
2012/9/13 16:00,2.3,8,2.3,8,5.4,8
2012/9/13 16:01,2.4,8,2.4,8,6.2,8
2012/9/13 16:02,2.6,8,2.6,8,6.5,8
2012/9/13 16:03,2.7,8,2.7,8,5.8,8
2012/9/13 16:04,2.8,8,2.8,8,4.2,8
2012/9/13 16:05,2.8,8,2.8,8,6.2,8
2012/9/13 16:06,2.9,8,2.9,8,5.4,9
2012/9/13 16:07,2.9,8,2.9,8,3.8,9
2012/9/13 16:08,2.9,8,2.9,8,3.3,9
2012/9/13 16:09,2.9,8,2.9,8,4.5,7
2012/9/13 16:10,2.9,8,2.9,8,4.1,9
2012/9/13 16:11,2.8,8,2.9,8,4.4,7
2012/9/13 16:12,2.7,8,2.8,8,3.9,8
2012/9/13 16:13,2.6,8,2.7,8,4.2,7
2012/9/13 16:14,2.6,8,2.6,8,3.8,8
2012/9/13 16:15,2.4,8,2.6,8,3,8
2012/9/13 16:16,2.3,8,2.4,8,2.4,7
2012/9/13 16:17,2.4,7,2.4,8,3.9,6
2012/9/13 16:18,2.4,7,2.4,8,2.9,8
2012/9/13 16:19,2.3,7,2.3,8,3,7
2012/9/13 16:20,2.2,7,2.2,8,2.2,8
2012/9/13 16:21,2.1,7,2.2,8,3.7,8
2012/9/13 16:22,1.9,7,2.1,8,2.2,6
2012/9/13 16:23,1.7,7,1.9,8,1.5,9
2012/9/13 16:24,1.6,7,1.7,8,3.3,6
2012/9/13 16:25,1.8,7,1.8,8,3.5,6
2012/9/13 16:26,1.8,7,1.8,7,3.3,7
2012/9/13 16:27,1.8,7,1.8,7,3.5,7
2012/9/13 16:28,1.8,7,1.8,7,3.6,8
2012/9/13 16:29,1.7,7,1.8,7,2.5,8
2012/9/13 16:30,1.8,7,1.8,7,3.3,8
2012/9/13 16:31,1.9,7,1.9,7,3.6,9
2012/9/13 16:32,2,7,2,7,4.9,8
2012/9/13 16:33,2.2,7,2.2,7,4.1,8
2012/9/13 16:34,2.2,7,2.3,7,3.5,7
2012/9/13 16:35,2.1,7,2.2,7,2.5,8
2012/9/13 16:36,2.1,7,2.1,7,3.3,7
2012/9/13 16:37,2.1,7,2.1,7,2.5,5
2012/9/13 16:38,2,7,2,7,2.5,7
2012/9/13 16:39,2,7,2,7,2.1,6
2012/9/13 16:40,1.9,7,2,7,3.9,7
2012/9/13 16:41,1.9,7,1.9,7,3.5,8
2012/9/13 16:42,1.7,7,1.9,7,2,6
2012/9/13 16:43,1.5,7,1.6,7,1.8,7
2012/9/13 16:44,1.4,6,1.5,7,2,7
2012/9/13 16:45,1.3,7,1.4,7,2.1,8
2012/9/13 16:46,1.3,6,1.3,7,2.5,5
2012/9/13 16:47,1.3,6,1.3,7,3,5
2012/9/13 16:48,1.3,6,1.3,7,3.2,7
2012/9/13 16:49,1.4,6,1.4,7,3.2,6
2012/9/13 16:50,1.5,6,1.5,7,3.5,7
2012/9/13 16:51,1.6,6,1.6,7,2.7,6
2012/9/13 16:52,1.6,6,1.6,7,2.4,7
2012/9/13 16:53,1.6,6,1.7,6,1.4,6
2012/9/13 16:54,1.6,6,1.6,6,0.9,9
2012/9/13 16:55,1.5,6,1.6,6,1,6
2012/9/13 16:56,1.5,6,1.5,6,3,5
2012/9/13 16:57,1.5,6,1.5,6,2.6,5
2012/9/13 16:58,1.5,6,1.6,6,2.4,5
2012/9/13 16:59,1.3,6,1.5,6,1.8,5
2012/9/13 17:00,1.3,6,1.3,6,1.9,5
2012/9/13 17:01,1.2,5,1.2,6,3.6,5
2012/9/13 17:02,1.3,5,1.3,6,3,4
2012/9/13 17:03,1.5,5,1.5,6,3.5,4
2012/9/13 17:04,1.6,5,1.6,6,2.5,4
2012/9/13 17:05,1.7,5,1.7,5,1.8,4
2012/9/13 17:06,1.7,5,1.8,5,2.2,3
2012/9/13 17:07,1.7,5,1.7,5,2,4
2012/9/13 17:08,1.7,5,1.7,5,2.2,5
2012/9/13 17:09,1.8,4,1.8,5,2.4,5
2012/9/13 17:10,1.7,5,1.8,5,2,3
2012/9/13 17:11,1.6,4,1.7,5,2.1,3
2012/9/13 17:12,1.5,5,1.6,5,1.8,5
2012/9/13 17:13,1.5,5,1.5,5,2.1,6
2012/9/13 17:14,1.4,5,1.5,5,2.1,5
2012/9/13 17:15,1.4,4,1.4,5,1.6,5
2012/9/13 17:16,1.4,4,1.4,5,2.7,3
2012/9/13 17:17,1.4,4,1.4,5,2.5,3
2012/9/13 17:18,1.5,4,1.5,5,2.5,3
2012/9/13 17:19,1.5,4,1.5,4,2.7,4
2012/9/13 17:20,1.5,4,1.5,5,2.2,3
2012/9/13 17:21,1.5,4,1.5,5,1.6,5
2012/9/13 17:22,1.5,4,1.6,4,2,2
2012/9/13 17:23,1.4,4,1.5,4,1,4
2012/9/13 17:24,1.4,4,1.4,4,1.5,3
2012/9/13 17:25,1.4,3,1.4,4,1.1,3
2012/9/13 17:26,1.3,3,1.4,4,1.1,4
2012/9/13 17:27,1.2,3,1.3,4,1.6,3
2012/9/13 17:28,1.2,4,1.2,4,1.5,4
2012/9/13 17:29,1,4,1.1,4,1.4,3
2012/9/13 17:30,1,4,1,4,1.4,4
2012/9/13 17:31,1,3,1,4,1,1
2012/9/13 17:32,0.9,3,0.9,4,0.9,3
2012/9/13 17:33,0.9,3,0.9,4,1.1,2
2012/9/13 17:34,0.9,3,0.9,4,1.3,2
2012/9/13 17:35,0.9,3,0.9,3,1.4,2
2012/9/13 17:36,0.9,3,0.9,3,1.6,2
2012/9/13 17:37,0.9,3,0.9,3,1.4,3
2012/9/13 17:38,0.9,3,0.9,4,2,3
2012/9/13 17:39,1,2,1,4,2,3
2012/9/13 17:40,1,2,1,4,2,3
2012/9/13 17:41,1.1,2,1.1,2,2.1,3
2012/9/13 17:42,1.2,3,1.2,2,2.6,3
2012/9/13 17:43,1.2,3,1.3,3,1.9,3
2012/9/13 17:44,1.4,3,1.4,3,2.5,3
2012/9/13 17:45,1.4,3,1.4,3,2.2,4
2012/9/13 17:46,1.5,3,1.5,3,2.1,3
2012/9/13 17:47,1.5,3,1.5,3,2,3
2012/9/13 17:48,1.6,3,1.6,3,2.1,3
2012/9/13 17:49,1.5,3,1.6,3,1.5,3
2012/9/13 17:50,1.5,3,1.5,3,1.8,4
2012/9/13 17:51,1.5,3,1.5,3,1.8,3
2012/9/13 17:52,1.4,3,1.5,3,2.2,5
2012/9/13 17:53,1.4,3,1.4,3,1.9,5
2012/9/13 17:54,1.4,3,1.4,3,1.9,4
2012/9/13 17:55,1.3,3,1.4,3,1.9,3
2012/9/13 17:56,1.3,4,1.3,3,2.2,7
2012/9/13 17:57,1.3,4,1.3,3,2.4,7
2012/9/13 17:58,1.4,4,1.4,3,3.5,7
2012/9/13 17:59,1.6,4,1.6,4,4.2,6
2012/9/13 18:00,1.7,5,1.7,5,3.3,6
2012/9/13 18:01,1.8,5,1.8,5,3,6
2012/9/13 18:02,2,5,2,5,3.5,7
2012/9/13 18:03,2,5,2,5,2.9,5
2012/9/13 18:04,2.2,5,2.2,5,3.9,5
2012/9/13 18:05,2.3,6,2.3,6,3.6,6
2012/9/13 18:06,2.3,6,2.4,6,3,6
2012/9/13 18:07,2.4,6,2.4,6,3.1,5
2012/9/13 18:08,2.4,6,2.4,6,2.7,6
2012/9/13 18:09,2.3,6,2.4,6,2.5,5
2012/9/13 18:10,2.2,6,2.2,6,2.5,6
2012/9/13 18:11,2.1,6,2.2,6,2,7
2012/9/13 18:12,1.9,6,2.1,6,1.5,5
2012/9/13 18:13,1.8,5,1.9,6,1,3
2012/9/13 18:14,1.6,5,1.8,6,0.8,4
2012/9/13 18:15,1.4,5,1.6,6,1.1,4
2012/9/13 18:16,1.3,4,1.4,6,1.1,2
2012/9/13 18:17,1.1,4,1.3,6,1.3,3
2012/9/13 18:18,1.1,3,1.1,6,1.9,4
2012/9/13 18:19,1,3,1,6,3,3
2012/9/13 18:20,1,3,1,6,3,3
2012/9/13 18:21,1,3,1,6,2.1,4
2012/9/13 18:22,1,2,1,6,1.8,3
2012/9/13 18:23,1.1,2,1.1,5,2.2,3
2012/9/13 18:24,1.1,2,1.1,5,1.5,2
2012/9/13 18:25,1.2,2,1.2,5,2,2
2012/9/13 18:26,1.3,3,1.3,4,2,3
2012/9/13 18:27,1.3,3,1.3,3,1.5,5
2012/9/13 18:28,1.3,3,1.3,3,1.8,3
2012/9/13 18:29,1.2,3,1.3,3,1.6,3
2012/9/13 18:30,1.2,3,1.2,3,1.3,4
2012/9/13 18:31,1.2,3,1.2,3,1.9,4
2012/9/13 18:32,1.2,3,1.2,3,1.4,3
2012/9/13 18:33,1.1,3,1.2,3,2.2,4
2012/9/13 18:34,1.2,3,1.2,3,2.5,3
2012/9/13 18:35,1.2,3,1.2,3,1.8,4
2012/9/13 18:36,1.1,3,1.2,3,2,5
2012/9/13 18:37,1.1,3,1.1,3,0.9,2
2012/9/13 18:38,1.1,3,1.1,3,1.1,16
2012/9/13 18:39,1.1,3,1.1,3,1.6,2
2012/9/13 18:40,1.1,3,1.1,3,1.5,2
2012/9/13 18:41,1,3,1,3,1.3,2
2012/9/13 18:42,1,2,1,3,1.1,16
2012/9/13 18:43,0.9,2,1,3,1.4,2
2012/9/13 18:44,0.9,2,0.9,3,1.9,1
2012/9/13 18:45,0.9,2,0.9,3,1.8,1
2012/9/13 18:46,0.9,2,0.9,3,2.2,1
2012/9/13 18:47,0.9,1,1,3,1.9,1
2012/9/13 18:48,1,2,1,3,1.8,1
2012/9/13 18:49,1,1,1,3,1.8,2
2012/9/13 18:50,1,1,1,3,2,3
2012/9/13 18:51,1.1,2,1.1,2,2.5,3
2012/9/13 18:52,1.1,2,1.1,2,1.9,1
2012/9/13 18:53,1.1,2,1.2,2,1.9,2
2012/9/13 18:54,1.2,2,1.2,2,2.1,3
2012/9/13 18:55,1.3,2,1.3,2,2.9,3
2012/9/13 18:56,1.3,2,1.3,2,2.4,3
2012/9/13 18:57,1.4,2,1.4,2,2.1,3
2012/9/13 18:58,1.4,2,1.4,2,2.2,1
2012/9/13 18:59,1.5,2,1.5,2,3.1,2
2012/9/13 19:00,1.6,2,1.6,2,3,3
2012/9/13 19:01,1.7,3,1.7,2,3.1,3
2012/9/13 19:02,1.8,3,1.8,3,3.3,3
2012/9/13 19:03,1.9,3,1.9,3,2.7,2
2012/9/13 19:04,1.9,2,1.9,3,2.5,2
2012/9/13 19:05,1.9,2,1.9,3,2.2,3
2012/9/13 19:06,1.9,2,1.9,3,2.9,4
2012/9/13 19:07,1.9,2,1.9,3,2.2,3
2012/9/13 19:08,1.9,2,1.9,3,1.8,3
2012/9/13 19:09,1.8,2,1.9,3,1.8,3
2012/9/13 19:10,1.7,2,1.8,3,1.1,2
2012/9/13 19:11,1.5,2,1.6,3,1.5,3
2012/9/13 19:12,1.5,2,1.5,3,1.6,3
2012/9/13 19:13,1.4,3,1.5,3,2.2,3
2012/9/13 19:14,1.5,3,1.5,2,2.7,3
2012/9/13 19:15,1.5,3,1.5,2,2.4,1
2012/9/13 19:16,1.4,3,1.4,2,2.7,3
2012/9/13 19:17,1.4,3,1.4,2,2.5,1
2012/9/13 19:18,1.4,2,1.4,2,2.5,4
2012/9/13 19:19,1.5,2,1.5,2,3.1,3
2012/9/13 19:20,1.6,3,1.6,2,2.9,2
2012/9/13 19:21,1.7,2,1.7,2,2.6,3
2012/9/13 19:22,1.7,2,1.7,2,3.1,3
2012/9/13 19:23,1.7,2,1.7,2,2.2,3
2012/9/13 19:24,1.7,2,1.7,2,2.2,3
2012/9/13 19:25,1.6,2,1.7,2,2.1,2
2012/9/13 19:26,1.6,2,1.7,2,2.1,2
2012/9/13 19:27,1.6,2,1.6,2,2.2,2
2012/9/13 19:28,1.5,2,1.6,2,1.4,16
2012/9/13 19:29,1.5,2,1.5,2,2,2
2012/9/13 19:30,1.4,2,1.5,2,1.9,1
2012/9/13 19:31,1.3,2,1.4,2,1.5,3